EA8CHC Sevilla ES current weather conditions

sailwx.info

Wind from 258

Air temperature 18.9° C
Dewpoint 9.4° C

Last reported at 2016-Jun-01 03:52 UTC.
Time now 2016-Jun-01 05:34 UTC

Location: N 37°26' W 006°03'.
View on Google Maps.

See reports from other nearby stations

  
Tides and Currents Weather Stations Pressure Air Temp Water Temp Dewpoint Dewpoint Depression Visibility Wind Speed Wind Dir Waves Ship Positions
date/time (UTC)wind fromknots sea level pressurealtimeterstation pressurevisibilityair tempwater tempwave heightnotes
2016-Jun-01 03:52 258 18.9
2016-Jun-01 03:47 258 18.9
2016-Jun-01 03:42 258 18.9
2016-Jun-01 03:37 258 19.4
2016-Jun-01 03:32 258 19.4
2016-Jun-01 03:27 258 19.4
2016-Jun-01 03:22 258 19.4
2016-Jun-01 03:17 258 0 gusting 4 18.9
2016-Jun-01 03:12 258 1 gusting 4 18.9
2016-Jun-01 03:07 259 0 gusting 3 18.9
2016-Jun-01 03:02 319 0 gusting 3 18.9
2016-Jun-01 02:57 319 0 gusting 3 18.9
2016-Jun-01 02:52 319 0 gusting 2 19.4
2016-Jun-01 02:47 319 0 gusting 3 19.4
2016-Jun-01 02:42 319 1 gusting 3 19.4
2016-Jun-01 02:37 319 1 gusting 3 19.4
2016-Jun-01 02:32 319 1 gusting 4 19.4
2016-Jun-01 02:27 319 1 gusting 4 19.4
2016-Jun-01 02:22 319 1 gusting 3 19.4
2016-Jun-01 02:17 319 0 gusting 2 19.4
2016-Jun-01 02:12 319 0 gusting 3 19.4
2016-Jun-01 02:07 319 1 gusting 3 19.4
2016-Jun-01 02:02 319 1 gusting 3 19.4
2016-Jun-01 01:57 319 1 gusting 3 19.4
2016-Jun-01 01:52 319 1 gusting 3 19.4
2016-Jun-01 01:47 319 2 gusting 3 20.0
2016-Jun-01 01:42 319 1 gusting 4 20.0
2016-Jun-01 01:37 319 2 gusting 5 20.0
2016-Jun-01 01:32 313 3 gusting 5 20.0
2016-Jun-01 01:27 305 3 gusting 5 20.0
2016-Jun-01 01:22 305 3 gusting 5 20.6
2016-Jun-01 01:17 292 2 gusting 4 20.6
2016-Jun-01 01:12 292 2 gusting 5 20.6
2016-Jun-01 01:07 292 3 gusting 5 20.6
2016-Jun-01 01:02 292 3 gusting 5 20.6
2016-Jun-01 00:57 292 3 gusting 5 20.6
2016-Jun-01 00:52 292 4 gusting 5 20.6
2016-Jun-01 00:47 292 3 gusting 5 20.6
2016-Jun-01 00:42 292 3 gusting 5 20.6
2016-Jun-01 00:37 292 3 gusting 5 21.1
2016-Jun-01 00:32 292 4 gusting 5 21.1
2016-Jun-01 00:27 299 3 gusting 5 21.1
2016-Jun-01 00:22 290 2 gusting 2 21.1
2016-Jun-01 00:17 288 1 gusting 2 21.7
2016-Jun-01 00:12 290 0 gusting 2 21.7
2016-Jun-01 00:07 290 0 gusting 2 21.7
2016-Jun-01 00:02 290 0 gusting 2 21.7
2016-May-31 23:57 290 0 gusting 2 22.2
2016-May-31 23:52 290 0 gusting 3 22.2
2016-May-31 23:47 290 0 gusting 5 22.2
2016-May-31 23:42 290 1 gusting 5 22.2
2016-May-31 23:37 290 1 gusting 5 22.2
2016-May-31 23:32 290 2 gusting 5 22.2
2016-May-31 23:27 319 2 gusting 6 22.8
2016-May-31 23:22 281 3 gusting 6 22.2
2016-May-31 23:17 279 3 gusting 6 22.2
2016-May-31 23:12 275 4 gusting 6 22.2
2016-May-31 23:07 288 4 gusting 6 22.2
2016-May-31 23:02 281 4 gusting 6 22.8
2016-May-31 22:57 295 4 gusting 6 22.8
2016-May-31 22:52 288 4 gusting 6 22.8
2016-May-31 22:47 292 4 gusting 6 23.3
2016-May-31 22:42 290 3 gusting 6 23.3
2016-May-31 22:37 294 3 gusting 6 23.3
2016-May-31 22:32 273 3 gusting 6 23.3
2016-May-31 22:27 265 3 gusting 6 22.8
2016-May-31 22:22 282 3 gusting 6 22.8
2016-May-31 22:17 293 3 gusting 6 22.2
2016-May-31 22:12 285 3 gusting 6 22.2
2016-May-31 22:07 296 4 gusting 6 22.2
2016-May-31 22:02 272 3 gusting 10 22.2
2016-May-31 21:57 263 3 gusting 10 22.8
2016-May-31 21:52 287 5 gusting 10 22.8
2016-May-31 21:47 288 6 gusting 11 22.8
2016-May-31 21:42 281 6 gusting 11 23.3
2016-May-31 21:37 282 6 gusting 11 23.3
2016-May-31 21:32 278 5 gusting 9 22.8
2016-May-31 21:27 297 1 gusting 2 23.9
2016-May-31 21:22 213 25.6
2016-May-31 21:17 213 1 gusting 2 25.6
2016-May-31 21:12 213 1 gusting 2 25.6
2016-May-31 21:07 213 1 gusting 2 25.6
2016-May-31 21:02 213 1 gusting 2 25.6
2016-May-31 20:57 213 1 gusting 2 26.1
2016-May-31 20:52 213 0 gusting 2 26.1
2016-May-31 20:47 213 0 gusting 2 26.1
2016-May-31 20:42 213 1 gusting 3 26.1
2016-May-31 20:37 213 1 gusting 3 26.1
2016-May-31 20:32 213 1 gusting 3 26.1
2016-May-31 20:27 213 0 gusting 3 26.1
2016-May-31 20:22 092 0 gusting 3 26.1
2016-May-31 20:17 092 0 gusting 3 26.7
2016-May-31 20:12 092 0 gusting 1 26.7
2016-May-31 20:07 092 26.7
2016-May-31 20:02 092 27.2
2016-May-31 19:57 092 27.2
2016-May-31 19:52 092 0 gusting 3 27.8
2016-May-31 19:47 092 0 gusting 3 28.3
2016-May-31 19:42 092 28.3
2016-May-31 19:37 092 28.9
2016-May-31 19:32 092 28.9
2016-May-31 19:27 092 29.4
2016-May-31 19:22 092 30.0
2016-May-31 19:17 092 30.6
2016-May-31 19:12 092 30.6
2016-May-31 19:07 092 30.6
2016-May-31 19:02 092 30.0
2016-May-31 18:57 092 30.0
2016-May-31 18:52 092 30.0
2016-May-31 18:47 092 29.4
2016-May-31 18:42 092 0 gusting 4 29.4
2016-May-31 18:37 092 1 gusting 4 29.4
2016-May-31 18:32 092 1 gusting 5 29.4
2016-May-31 18:27 092 1 gusting 5 29.4
2016-May-31 18:22 095 1 gusting 6 29.4
2016-May-31 18:17 097 0 gusting 6 30.0
2016-May-31 18:12 096 0 gusting 6 30.0
2016-May-31 18:07 040 1 gusting 6 30.0
2016-May-31 18:02 013 0 gusting 4 29.4
2016-May-31 17:57 069 0 gusting 4 30.0
2016-May-31 17:52 102 0 gusting 3 30.0
2016-May-31 17:47 105 0 gusting 4 30.0
2016-May-31 17:42 344 0 gusting 4 30.0
2016-May-31 17:37 348 0 gusting 4 29.4
2016-May-31 17:32 111 0 gusting 5 30.0
2016-May-31 17:27 139 0 gusting 5 29.4
2016-May-31 17:22 139 1 gusting 5 29.4
2016-May-31 17:17 128 1 gusting 5 30.0
2016-May-31 17:12 087 1 gusting 2 30.0
2016-May-31 17:07 041 0 gusting 2 30.6
2016-May-31 17:02 039 30.0
2016-May-31 16:57 048 30.6
2016-May-31 16:52 026 1 gusting 6 30.6
2016-May-31 16:47 026 0 gusting 5 30.6
2016-May-31 16:42 338 0 gusting 6 30.0
2016-May-31 16:37 338 1 gusting 6 29.4
2016-May-31 16:32 346 2 gusting 6 29.4
2016-May-31 16:27 301 2 gusting 8 29.4
2016-May-31 16:22 021 2 gusting 9 29.4
2016-May-31 16:17 078 2 gusting 10 29.4
2016-May-31 16:12 059 3 gusting 10 29.4
2016-May-31 16:07 052 4 gusting 10 29.4
2016-May-31 16:02 056 4 gusting 9 29.4
2016-May-31 15:57 076 3 gusting 9 29.4
2016-May-31 15:52 092 2 gusting 6 29.4
2016-May-31 15:47 29.4
2016-May-31 15:42 348 1 gusting 6 29.4
2016-May-31 15:37 344 2 gusting 6 28.9
2016-May-31 15:32 103 1 gusting 6 28.9
2016-May-31 15:27 065 0 gusting 8 28.9
2016-May-31 15:22 101 1 gusting 10 28.9
2016-May-31 15:17 101 3 gusting 10 28.3
2016-May-31 15:12 107 5 gusting 9 28.3
2016-May-31 15:07 059 4 gusting 9 28.9
2016-May-31 15:02 074 2 gusting 8 28.9
2016-May-31 14:57 355 1 gusting 8 28.9
2016-May-31 14:52 034 2 gusting 8 28.9
2016-May-31 14:47 147 3 gusting 10 28.9
2016-May-31 14:42 024 3 gusting 10 28.3
2016-May-31 14:37 094 5 gusting 10 28.3
2016-May-31 14:32 025 3 gusting 9 28.9
2016-May-31 14:27 019 1 gusting 8 28.3
2016-May-31 14:22 029 2 gusting 8 28.3
2016-May-31 14:17 005 3 gusting 9 28.3
2016-May-31 14:12 011 1 gusting 9 28.3
2016-May-31 14:07 103 2 gusting 9 28.3
2016-May-31 14:02 052 2 gusting 9 28.3
2016-May-31 13:57 055 2 gusting 9 28.3
2016-May-31 13:52 010 2 gusting 10 27.8
2016-May-31 13:47 079 4 gusting 10 27.8
2016-May-31 13:42 048 4 gusting 6 27.8
2016-May-31 13:37 061 1 gusting 7 27.8
2016-May-31 13:32 27.2
2016-May-31 13:27 076 3 gusting 11 27.2
2016-May-31 13:22 065 3 gusting 11 27.2
2016-May-31 13:17 057 3 gusting 11 27.2
2016-May-31 13:12 071 4 gusting 7 27.2
2016-May-31 13:07 111 2 gusting 7 27.2
2016-May-31 13:02 111 1 gusting 7 27.2
2016-May-31 12:57 219 2 gusting 7 27.2
2016-May-31 12:52 094 3 gusting 12 27.2
2016-May-31 12:47 012 3 gusting 12 27.2
2016-May-31 12:42 076 2 gusting 8 26.7
2016-May-31 12:37 112 3 gusting 8 26.7
2016-May-31 12:32 071 4 gusting 6 26.7
2016-May-31 12:27 339 3 gusting 6 26.1
2016-May-31 12:22 299 2 gusting 8 26.7
2016-May-31 12:17 017 1 gusting 8 26.1
2016-May-31 12:12 011 3 gusting 8 26.1
2016-May-31 12:07 016 3 gusting 8 26.1
2016-May-31 12:02 055 2 gusting 8 26.1
2016-May-31 11:57 026 2 gusting 8 25.6
2016-May-31 11:52 049 2 gusting 6 25.6
2016-May-31 11:47 142 2 gusting 6 25.6
2016-May-31 11:42 058 1 gusting 10 25.6
2016-May-31 11:37 064 0 gusting 10 25.6
2016-May-31 11:32 080 2 gusting 10 25.6
2016-May-31 11:27 040 2 gusting 10 25.6
2016-May-31 11:22 034 3 gusting 8 25.0
2016-May-31 11:17 076 3 gusting 8 25.0
2016-May-31 11:12 051 1 gusting 8 25.0
2016-May-31 11:07 025 2 gusting 8 25.0
2016-May-31 11:02 355 3 gusting 8 25.0
2016-May-31 10:57 101 2 gusting 8 25.0
2016-May-31 10:52 025 1 gusting 6 24.4
2016-May-31 10:47 094 2 gusting 6 24.4
2016-May-31 10:42 098 1 gusting 6 24.4
2016-May-31 10:37 105 2 gusting 6 23.9
2016-May-31 10:32 069 3 gusting 6 23.9
2016-May-31 10:27 059 2 gusting 6 23.9
2016-May-31 10:22 071 2 gusting 6 23.9
2016-May-31 10:17 086 2 gusting 6 23.3
2016-May-31 10:12 102 2 gusting 11 23.3
2016-May-31 10:07 067 2 gusting 11 23.3
2016-May-31 10:02 076 2 gusting 11 23.3
2016-May-31 09:57 087 2 gusting 11 23.3
2016-May-31 09:52 142 1 gusting 8 23.3
2016-May-31 09:47 077 3 gusting 8 22.8
2016-May-31 09:42 069 3 gusting 5 22.8
2016-May-31 09:37 086 2 gusting 6 22.8
2016-May-31 09:32 092 1 gusting 6 22.8
2016-May-31 09:27 042 2 gusting 6 22.2
2016-May-31 09:22 038 2 gusting 6 22.2
2016-May-31 09:17 040 2 gusting 6 22.2
2016-May-31 09:12 111 2 gusting 6 21.7
2016-May-31 09:07 045 2 gusting 6 21.7
2016-May-31 09:02 076 2 gusting 6 21.7
2016-May-31 08:57 020 2 gusting 6 21.7
2016-May-31 08:52 022 1 gusting 9 21.7
2016-May-31 08:47 073 2 gusting 9 21.1
2016-May-31 08:42 058 2 gusting 6 21.1
2016-May-31 08:37 038 2 gusting 6 21.1
2016-May-31 08:32 032 3 gusting 6 21.1
2016-May-31 08:27 012 2 gusting 6 21.1
2016-May-31 08:22 061 2 gusting 6 20.6
2016-May-31 08:17 061 3 gusting 6 20.6
2016-May-31 08:12 20.6
2016-May-31 08:07 009 3 gusting 6 20.6
2016-May-31 08:02 005 2 gusting 7 20.0
2016-May-31 07:57 027 2 gusting 7 19.4
2016-May-31 07:52 011 3 gusting 7 19.4
2016-May-31 07:47 338 3 gusting 7 19.4
2016-May-31 07:42 355 3 gusting 6 19.4
2016-May-31 07:37 005 3 gusting 6 19.4
2016-May-31 07:32 333 3 gusting 6 18.9
2016-May-31 07:27 351 3 gusting 6 18.9
2016-May-31 07:22 005 2 gusting 5 18.9
2016-May-31 07:17 009 2 gusting 5 18.3
2016-May-31 07:12 343 2 gusting 5 18.3
2016-May-31 07:07 321 2 gusting 5 18.3
2016-May-31 07:02 314 2 gusting 6 17.8
2016-May-31 06:57 317 2 gusting 6 17.8
2016-May-31 06:52 338 2 gusting 6 17.8
2016-May-31 06:47 343 2 gusting 6 17.2
2016-May-31 06:42 307 2 gusting 5 17.2
2016-May-31 06:37 317 2 gusting 5 16.7
2016-May-31 06:32 309 2 gusting 5 16.7
2016-May-31 06:27 321 2 gusting 5 16.1
2016-May-31 06:22 331 2 gusting 5 16.1
2016-May-31 06:17 319 2 gusting 5 15.6
2016-May-31 06:12 311 2 gusting 4 15.6
2016-May-31 06:07 325 2 gusting 4 15.6
2016-May-31 06:02 317 2 gusting 4 15.6
2016-May-31 05:57 317 2 gusting 4 15.6
2016-May-31 05:52 317 2 gusting 4 15.6
2016-May-31 05:47 317 2 gusting 4 15.6
2016-May-31 05:42 317 1 gusting 3 15.6
2016-May-31 05:37 317 1 gusting 3 15.6
2016-May-31 05:32 317 1 gusting 3 15.6
2016-May-31 05:27 317 1 gusting 3 15.6
2016-May-31 05:22 317 1 gusting 3 15.6
2016-May-31 05:17 317 1 gusting 3 15.6
2016-May-31 05:12 317 1 gusting 3 15.6
2016-May-31 05:07 317 0 gusting 3 15.6
2016-May-31 05:02 317 1 gusting 3 15.6
2016-May-31 04:57 317 1 gusting 3 15.6
2016-May-31 04:52 317 1 gusting 3 15.6
2016-May-31 04:47 317 1 gusting 3 15.6
2016-May-31 04:42 317 1 gusting 3 15.6
2016-May-31 04:37 317 1 gusting 3 15.6
2016-May-31 04:32 317 1 gusting 5 15.6
2016-May-31 04:27 317 1 gusting 5 15.6
2016-May-31 04:22 317 2 gusting 5 15.6
2016-May-31 04:17 317 2 gusting 5 15.6
2016-May-31 04:12 317 2 gusting 4 15.6
2016-May-31 04:07 317 2 gusting 4 15.6
2016-May-31 04:02 317 2 gusting 5 16.1
2016-May-31 03:57 327 2 gusting 5 16.1
2016-May-31 03:52 311 2 gusting 6 15.6
2016-May-31 03:47 312 3 gusting 6 16.1
2016-May-31 03:42 301 3 gusting 5 16.1
2016-May-31 03:37 302 3 gusting 5 16.1
2016-May-31 03:32 309 3 gusting 5 16.1
2016-May-31 03:27 304 3 gusting 5 16.1
2016-May-31 03:22 300 2 gusting 4 16.1
2016-May-31 03:17 309 2 gusting 4 16.1
2016-May-31 03:12 313 2 gusting 5 16.1
2016-May-31 03:07 302 2 gusting 5 16.7
2016-May-31 03:02 294 2 gusting 5 16.7
2016-May-31 02:57 290 3 gusting 5 16.7
2016-May-31 02:52 290 3 gusting 4 17.2
2016-May-31 02:47 285 2 gusting 4 17.8
2016-May-31 02:42 308 2 gusting 4 17.8
2016-May-31 02:37 308 2 gusting 5 17.8
2016-May-31 02:32 308 2 gusting 6 17.8
2016-May-31 02:27 309 3 gusting 6 17.8
2016-May-31 02:22 297 3 gusting 6 17.8
2016-May-31 02:17 289 3 gusting 6 17.8
2016-May-31 02:12 294 2 gusting 4 18.3
2016-May-31 02:07 313 2 gusting 4 18.3
2016-May-31 02:02 313 2 gusting 4 18.3
2016-May-31 01:57 313 2 gusting 4 18.3
2016-May-31 01:52 313 2 gusting 2 18.3
2016-May-31 01:47 313 1 gusting 2 18.3
2016-May-31 01:42 313 1 gusting 2 18.3
2016-May-31 01:37 313 0 gusting 2 18.3
2016-May-31 01:32 313 0 gusting 2 18.3
2016-May-31 01:27 313 0 gusting 2 18.3
2016-May-31 01:22 313 1 gusting 2 18.3
2016-May-31 01:17 313 0 gusting 2 18.3
2016-May-31 01:12 313 18.3
2016-May-31 01:07 313 18.3
2016-May-31 01:02 313 18.3
2016-May-31 00:57 313 0 gusting 2 18.9
2016-May-31 00:52 313 0 gusting 2 18.9
2016-May-31 00:47 313 0 gusting 2 18.9
2016-May-31 00:42 313 18.9
2016-May-31 00:37 313 0 gusting 3 18.9
2016-May-31 00:32 313 0 gusting 4 18.9
2016-May-31 00:27 313 1 gusting 4 18.9
2016-May-31 00:22 313 1 gusting 6 18.9
2016-May-31 00:17 315 1 gusting 6 18.9
2016-May-31 00:12 315 2 gusting 6 19.4
2016-May-31 00:07 319 2 gusting 6 19.4
2016-May-31 00:02 336 2 gusting 6 19.4
2016-May-30 23:57 317 2 gusting 6 19.4
2016-May-30 23:52 319 2 gusting 4 19.4
2016-May-30 23:47 311 1 gusting 4 19.4
2016-May-30 23:42 319 0 gusting 3 19.4
2016-May-30 23:37 313 0 gusting 3 19.4
2016-May-30 23:32 313 1 gusting 3 19.4
2016-May-30 23:27 313 1 gusting 3 19.4
2016-May-30 23:22 313 1 gusting 4 19.4
2016-May-30 23:17 313 1 gusting 4 19.4
2016-May-30 23:12 313 1 gusting 6 19.4
2016-May-30 23:07 314 2 gusting 6 19.4
2016-May-30 23:02 301 3 gusting 6 19.4
2016-May-30 22:57 300 3 gusting 6 20.0
2016-May-30 22:52 303 3 gusting 5 19.4
2016-May-30 22:47 304 3 gusting 5 19.4
2016-May-30 22:42 302 3 gusting 5 19.4
2016-May-30 22:37 306 3 gusting 5 20.0
2016-May-30 22:32 309 2 gusting 5 20.0
2016-May-30 22:27 309 3 gusting 5 20.0
2016-May-30 22:22 309 3 gusting 6 20.0
2016-May-30 22:17 310 3 gusting 6 20.0
2016-May-30 22:12 307 3 gusting 9 20.6
2016-May-30 22:07 311 3 gusting 9 20.6
2016-May-30 22:02 306 3 gusting 9 20.6
2016-May-30 21:57 290 3 gusting 9 20.6
2016-May-30 21:52 276 4 gusting 8 20.6
2016-May-30 21:47 290 4 gusting 8 20.6
2016-May-30 21:42 302 4 gusting 7 20.6
2016-May-30 21:37 286 4 gusting 7 21.1
2016-May-30 21:32 294 4 gusting 6 21.1
2016-May-30 21:27 271 3 gusting 6 21.1
2016-May-30 21:22 304 3 gusting 6 21.1
2016-May-30 21:17 290 3 gusting 6 21.1
2016-May-30 21:12 310 3 gusting 5 21.1
2016-May-30 21:07 304 3 gusting 5 21.1
2016-May-30 21:02 317 3 gusting 5 21.7
2016-May-30 20:57 313 2 gusting 5 21.7
2016-May-30 20:52 311 2 gusting 5 21.7
2016-May-30 20:47 313 2 gusting 5 21.7
2016-May-30 20:42 349 2 gusting 5 22.2
2016-May-30 20:37 319 2 gusting 5 22.2
2016-May-30 20:32 337 2 gusting 7 22.8
2016-May-30 20:27 315 3 gusting 7 22.8
2016-May-30 20:22 340 3 gusting 8 22.8
2016-May-30 20:17 346 3 gusting 8 22.8
2016-May-30 20:12 314 4 gusting 7 22.8
2016-May-30 20:07 005 4 gusting 7 22.8
2016-May-30 20:02 010 3 gusting 6 22.8
2016-May-30 19:57 342 3 gusting 6 23.3
2016-May-30 19:52 331 3 gusting 6 23.3
2016-May-30 19:47 343 3 gusting 6 23.3
2016-May-30 19:42 300 3 gusting 9 23.9
2016-May-30 19:37 346 4 gusting 9 23.9
2016-May-30 19:32 348 5 gusting 10 24.4
2016-May-30 19:27 321 5 gusting 10 24.4
2016-May-30 19:22 342 5 gusting 10 24.4
2016-May-30 19:17 005 4 gusting 10 24.4
2016-May-30 19:12 336 4 gusting 10 24.4
2016-May-30 19:07 325 5 gusting 10 25.0
2016-May-30 19:02 344 5 gusting 10 25.0
2016-May-30 18:57 25.0
2016-May-30 18:52 346 5 gusting 8 25.6
2016-May-30 18:47 347 5 gusting 8 25.6
2016-May-30 18:42 355 5 gusting 8 25.6
2016-May-30 18:37 326 4 gusting 8 26.1
2016-May-30 18:32 350 4 gusting 7 26.1
2016-May-30 18:27 349 4 gusting 7 26.1
2016-May-30 18:22 300 4 gusting 6 26.1
2016-May-30 18:17 318 3 gusting 6 26.7
2016-May-30 18:12 341 3 gusting 7 26.7
2016-May-30 18:07 26.7
2016-May-30 18:02 355 3 gusting 7 26.7
2016-May-30 17:57 319 4 gusting 7 26.7
2016-May-30 17:52 298 4 gusting 8 27.2
2016-May-30 17:47 27.2
2016-May-30 17:42 319 3 gusting 8 27.2
2016-May-30 17:37 342 3 gusting 8 27.2
2016-May-30 17:32 025 3 gusting 9 27.2
2016-May-30 17:27 342 4 gusting 9 27.2
2016-May-30 17:22 331 6 gusting 9 26.7
2016-May-30 17:17 349 6 gusting 9 26.7
2016-May-30 17:12 27.2
2016-May-30 17:07 051 1 gusting 6 27.2
2016-May-30 17:02 054 0 gusting 7 27.2
2016-May-30 16:57 025 1 gusting 7 27.2
2016-May-30 16:52 025 4 gusting 6 27.2
2016-May-30 16:47 020 2 gusting 6 27.2
2016-May-30 16:42 355 1 gusting 7 27.2
2016-May-30 16:37 005 2 gusting 7 27.2
2016-May-30 16:32 044 2 gusting 8 27.2
2016-May-30 16:27 017 2 gusting 8 27.2
2016-May-30 16:22 333 4 gusting 9 27.2
2016-May-30 16:17 284 3 gusting 9 27.2
2016-May-30 16:12 350 1 gusting 12 27.2
2016-May-30 16:07 350 3 gusting 12 27.2
2016-May-30 16:02 323 5 gusting 12 27.2
2016-May-30 15:57 295 5 gusting 12 27.2
2016-May-30 15:52 344 3 gusting 8 27.2
2016-May-30 15:47 319 3 gusting 8 27.2
2016-May-30 15:42 017 4 gusting 8 26.7
2016-May-30 15:37 057 3 gusting 8 26.7
2016-May-30 15:32 009 2 gusting 12 26.7
2016-May-30 15:27 030 2 gusting 12 27.2
2016-May-30 15:22 341 4 gusting 10 26.7
2016-May-30 15:17 355 3 gusting 10 26.7
2016-May-30 15:12 306 3 gusting 10 26.7
2016-May-30 15:07 284 5 gusting 10 26.7
2016-May-30 15:02 355 4 gusting 9 26.7
2016-May-30 14:57 296 4 gusting 9 26.1
2016-May-30 14:52 267 3 gusting 9 26.1
2016-May-30 14:47 287 2 gusting 9 26.7
2016-May-30 14:42 022 2 gusting 7 26.1
2016-May-30 14:37 005 1 gusting 7 26.1
2016-May-30 14:32 038 1 gusting 12 26.1
2016-May-30 14:27 331 4 gusting 12 25.6
2016-May-30 14:22 265 3 gusting 8 26.1
2016-May-30 14:17 303 1 gusting 8 26.1
2016-May-30 14:12 028 2 gusting 8 26.1
2016-May-30 14:07 329 2 gusting 8 25.6
2016-May-30 14:02 289 2 gusting 13 25.6
2016-May-30 13:57 037 2 gusting 13 25.6
2016-May-30 13:52 332 4 gusting 13 25.6
2016-May-30 13:47 307 4 gusting 13 25.6
2016-May-30 13:42 344 2 gusting 8 25.6
2016-May-30 13:37 208 2 gusting 8 25.6
2016-May-30 13:32 207 4 gusting 10 25.0
2016-May-30 13:27 227 4 gusting 10 25.0
2016-May-30 13:22 289 4 gusting 13 25.0
2016-May-30 13:17 278 4 gusting 13 25.0
2016-May-30 13:12 271 3 gusting 7 25.0
2016-May-30 13:07 298 3 gusting 7 24.4
2016-May-30 13:02 299 3 gusting 6 24.4
2016-May-30 12:57 355 1 gusting 6 24.4
2016-May-30 12:52 009 1 gusting 6 23.9
2016-May-30 12:47 067 1 gusting 6 23.9
2016-May-30 12:42 074 3 gusting 6 23.9
2016-May-30 12:37 054 3 gusting 6 23.9
2016-May-30 12:32 052 2 gusting 6 24.4
2016-May-30 12:27 300 2 gusting 6 24.4
2016-May-30 12:22 050 1 gusting 6 24.4
2016-May-30 12:17 086 0 gusting 6 24.4
2016-May-30 12:12 110 1 gusting 6 24.4
2016-May-30 12:07 291 2 gusting 6 23.9
2016-May-30 12:02 285 2 gusting 9 23.9
2016-May-30 11:57 275 2 gusting 9 23.3
2016-May-30 11:52 013 2 gusting 9 23.3
2016-May-30 11:47 322 1 gusting 9 23.3
2016-May-30 11:42 331 1 gusting 6 23.3
2016-May-30 11:37 322 1 gusting 6 23.3
2016-May-30 11:32 170 1 gusting 6 23.3
2016-May-30 11:27 050 0 gusting 6 23.3
2016-May-30 11:22 315 1 gusting 7 23.3
2016-May-30 11:17 293 3 gusting 7 23.3
2016-May-30 11:12 313 2 gusting 5 23.3
2016-May-30 11:07 355 0 gusting 5 23.3
2016-May-30 11:02 343 1 gusting 6 23.3
2016-May-30 10:57 067 1 gusting 6 22.8
2016-May-30 10:52 326 2 gusting 9 22.8
2016-May-30 10:47 287 4 gusting 9 22.2
2016-May-30 10:42 051 3 gusting 6 22.2
2016-May-30 10:37 053 3 gusting 6 22.2
2016-May-30 10:32 086 2 gusting 3 22.8
2016-May-30 10:27 200 0 gusting 3 22.8
2016-May-30 10:22 346 0 gusting 6 22.2
2016-May-30 10:17 349 2 gusting 6 21.7
2016-May-30 10:12 036 2 gusting 8 21.7
2016-May-30 10:07 060 1 gusting 8 21.7
2016-May-30 10:02 110 1 gusting 8 21.1
2016-May-30 09:57 083 1 gusting 8 21.1
2016-May-30 09:52 009 1 gusting 6 21.1
2016-May-30 09:47 107 2 gusting 6 21.1
2016-May-30 09:42 107 2 gusting 6 21.1
2016-May-30 09:37 068 1 gusting 6 20.6
2016-May-30 09:32 005 1 gusting 5 20.6
2016-May-30 09:27 062 1 gusting 5 20.6
2016-May-30 09:22 061 2 gusting 6 20.6
2016-May-30 09:17 073 3 gusting 6 20.0
2016-May-30 09:12 053 2 gusting 6 20.6
2016-May-30 09:07 063 2 gusting 6 20.0
2016-May-30 09:02 033 2 gusting 6 20.0
2016-May-30 08:57 030 2 gusting 6 20.0
2016-May-30 08:52 053 2 gusting 8 20.0
2016-May-30 08:47 058 3 gusting 8 19.4
2016-May-30 08:42 062 3 gusting 6 19.4
2016-May-30 08:37 040 2 gusting 6 19.4
2016-May-30 08:32 015 2 gusting 6 18.9
2016-May-30 08:27 067 2 gusting 6 18.9
2016-May-30 08:22 048 2 gusting 6 18.9
2016-May-30 08:17 065 3 gusting 6 18.3
2016-May-30 08:12 060 4 gusting 6 18.3
2016-May-30 08:07 062 3 gusting 6 18.3
2016-May-30 08:02 064 3 gusting 6 18.3
2016-May-30 07:57 059 3 gusting 6 18.3
2016-May-30 07:52 342 3 gusting 6 18.3
2016-May-30 07:47 011 3 gusting 6 18.3
2016-May-30 07:42 012 2 gusting 4 17.8
2016-May-30 07:37 023 1 gusting 4 17.2
2016-May-30 07:32 327 1 gusting 4 17.2
2016-May-30 07:27 337 0 gusting 4 16.7
2016-May-30 07:22 329 1 gusting 4 16.7
2016-May-30 07:17 328 1 gusting 4 16.1
2016-May-30 07:12 296 1 gusting 5 15.6
2016-May-30 07:07 312 2 gusting 5 15.0
2016-May-30 07:02 294 2 gusting 5 15.0
2016-May-30 06:57 294 2 gusting 5 14.4
2016-May-30 06:52 294 2 gusting 4 14.4
2016-May-30 06:47 296 2 gusting 4 14.4
2016-May-30 06:42 292 2 gusting 4 14.4
2016-May-30 06:37 279 2 gusting 4 14.4
2016-May-30 06:32 292 1 gusting 3 14.4
2016-May-30 06:27 294 1 gusting 3 15.0
2016-May-30 06:22 294 0 gusting 2 15.0
2016-May-30 06:17 294 0 gusting 2 15.6
2016-May-30 06:12 255 15.6
2016-May-30 06:07 240 15.6
2016-May-30 06:02 240 15.6
2016-May-30 05:57 240 15.0
2016-May-30 05:52 309 15.0
2016-May-30 05:47 309 15.0
2016-May-30 05:42 309 14.4
2016-May-30 05:37 309 14.4
2016-May-30 05:32 309 14.4
2016-May-30 05:27 309 14.4
2016-May-30 05:22 309 14.4
2016-May-30 05:17 309 14.4
2016-May-30 05:12 309 0 gusting 3 14.4
2016-May-30 05:07 309 0 gusting 3 14.4
2016-May-30 05:02 309 1 gusting 3 14.4